[[{"header":{"parameterUnit":"m.s-1","parameterCategory":1,"la1":30.2991,"la2":30.254,"lo1":-89.0895,"lo2":-89.0444,"dy":0.0017,"dx":0.0017,"nx":28,"ny":28,"refTime":"2024-03-22T03:00:00:Z","depth":0,"parameterNumber":2,"parameterNumberName":"U-component_of_WINDS"},"data":[0,0,0,0,0,0,0,0,0,0,0,0,0,0,0,0,0,0,0,0,0,0,0,0,0,0,0,0,0,0,0,0,0,0,0,0,0,0,0,0,0,0,0,0,0,0,0,0,0,0,0,0,0,0,0,0,0,0,-0.4987,-0.4988,0,-0.5047,-0.5048,-0.5049,-0.5062,-0.5062,-0.5061,-0.5061,-0.5124,-0.5126,-0.5128,0,0,0,0,0,0,0,0,0,0,0,0,0,-0.4886,-0.4888,-0.4987,-0.4988,-0.4989,-0.5047,-0.5048,-0.5049,-0.5062,-0.5062,-0.5061,-0.5061,-0.5123,-0.5125,-0.5128,0,0,0,0,0,0,0,0,0,0,0,0,0,-0.4936,-0.4888,-0.4987,-0.5002,-0.5004,-0.5047,-0.5048,-0.5049,-0.5062,-0.5062,-0.5061,-0.506,-0.5122,-0.5125,-0.5128,-0.516,0,0,-0.5138,-0.5139,0,0,0,0,0,0,0,0,-0.4933,-0.494,-0.5,-0.5002,-0.5004,-0.5046,-0.5035,-0.5086,-0.5062,-0.504,-0.5061,-0.506,-0.5099,-0.5104,-0.5116,-0.5163,-0.5166,-0.5138,-0.514,-0.5141,-0.5142,0,0,0,0,0,0,0,-0.493,-0.4937,-0.5011,-0.5,-0.5003,-0.5007,-0.5013,-0.5045,-0.5072,-0.5042,-0.5043,-0.505,-0.51,-0.5113,-0.5118,-0.5167,-0.5138,-0.5141,-0.5143,-0.5144,-0.5243,-0.5243,0,0,0,0,0,0,-0.4923,-0.4934,-0.5009,-0.5013,-0.4966,-0.5009,-0.5016,-0.5033,-0.5072,-0.5077,-0.5051,-0.5051,-0.5108,-0.5114,-0.512,-0.516,-0.5141,-0.5144,-0.5146,-0.5242,-0.5243,-0.5244,0,0,0,0,0,0,-0.4921,-0.493,-0.5007,-0.4974,-0.4984,-0.5011,-0.5031,-0.5035,-0.5049,-0.5078,-0.5084,-0.5059,-0.5108,-0.5116,-0.515,-0.5163,-0.5146,-0.5148,-0.5241,-0.5242,-0.5243,-0.524,0,0,0,0,0,0,-0.4918,-0.4929,-0.4941,-0.4974,-0.4986,-0.5035,-0.5031,-0.5037,-0.5054,-0.5054,-0.5088,-0.5093,-0.5108,-0.5145,-0.5153,-0.5166,-0.5151,-0.524,-0.5242,-0.5243,-0.5239,-0.5241,-0.5243,0,0,0,0,0,-0.4915,-0.4939,-0.4942,-0.4951,-0.5002,-0.5036,-0.5043,-0.5059,-0.5055,-0.5067,-0.5086,-0.5092,-0.516,-0.5149,-0.5158,-0.5172,-0.5239,-0.5241,-0.5243,-0.5239,-0.5241,-0.5243,0,0,0,0,0,0,-0.4908,-0.4943,-0.4947,-0.4983,-0.5006,-0.5038,-0.5055,-0.5061,-0.5087,-0.5086,-0.5106,-0.5113,-0.5146,-0.5163,-0.515,-0.5205,-0.5199,-0.5203,-0.5193,-0.5196,-0.5197,-0.5193,-0.5153,0,0,0,0,0,-0.491,-0.4935,-0.4965,-0.4993,-0.5004,-0.5028,-0.5043,-0.5054,-0.5079,-0.5089,-0.5111,-0.5136,-0.5162,-0.518,-0.5206,-0.5241,-0.5249,-0.5256,-0.5257,-0.5258,-0.5262,-0.5281,-0.5285,-0.5249,-0.5249,-0.5249,0,0,-0.4916,-0.4938,-0.4953,-0.4992,-0.5012,-0.5037,-0.5036,-0.5063,-0.5082,-0.5094,-0.5127,-0.5144,-0.5172,-0.5207,-0.5224,-0.5222,-0.5273,-0.5261,-0.5261,-0.5264,-0.5283,-0.5287,-0.529,-0.525,-0.525,-0.525,0,0,-0.4939,-0.4959,-0.4984,-0.5003,-0.5032,-0.5047,-0.5053,-0.5084,-0.5096,-0.5129,-0.5138,-0.5161,-0.5207,-0.5227,-0.5243,-0.5273,-0.5279,-0.5281,-0.529,-0.5308,-0.5311,-0.5314,-0.5324,-0.5328,-0.5283,-0.5283,-0.5283,0,-0.4943,-0.4981,-0.4997,-0.5023,-0.504,-0.505,-0.5077,-0.5095,-0.5131,-0.5143,-0.514,-0.5197,-0.5217,-0.5256,-0.5263,-0.5276,-0.5284,-0.5277,-0.5309,-0.5312,-0.5315,-0.5325,-0.5329,-0.5284,-0.5284,-0.5284,-0.5284,0,-0.4984,-0.501,-0.5028,-0.5062,-0.508,-0.5107,-0.5126,-0.5144,-0.5152,-0.5167,-0.5201,-0.5225,-0.5257,-0.5267,-0.5275,-0.5307,-0.5305,-0.5305,-0.5301,-0.5318,-0.5328,-0.5332,-0.5284,-0.5284,-0.5284,-0.5284,0,0,-0.5006,-0.5047,-0.5054,-0.5069,-0.5101,-0.5122,-0.5148,-0.5178,-0.5192,-0.5217,-0.5239,-0.5277,-0.5277,-0.5296,-0.5307,-0.5323,-0.5345,-0.5322,-0.5323,-0.5325,-0.5381,-0.5381,-0.5385,-0.5349,-0.5349,-0.535,-0.5379,0,-0.5034,-0.5081,-0.5095,-0.5135,-0.5159,-0.5169,-0.5192,-0.5214,-0.5229,-0.5252,-0.5268,-0.5294,-0.5293,-0.5304,-0.532,-0.5339,-0.5356,-0.5337,-0.537,-0.5371,-0.5363,-0.5391,-0.5391,-0.5417,-0.5383,-0.5384,-0.5384,0,-0.5073,-0.5097,-0.5139,-0.5167,-0.5178,-0.5198,-0.5226,-0.5248,-0.5273,-0.5282,-0.5302,-0.5311,-0.5339,-0.5332,-0.5371,-0.5357,-0.5371,-0.5382,-0.5384,-0.5388,-0.5379,-0.5396,-0.5426,-0.543,-0.539,-0.539,-0.539,0,-0.5085,-0.5128,-0.5158,-0.5171,-0.5205,-0.5219,-0.5234,-0.5258,-0.5275,-0.5299,-0.531,-0.5338,-0.5353,-0.5374,-0.5391,-0.5384,-0.5428,-0.5422,-0.5437,-0.5436,-0.5447,-0.5446,-0.5479,-0.5455,-0.5455,-0.5455,-0.5455,0,-0.5115,-0.514,-0.5164,-0.5183,-0.5211,-0.5227,-0.5255,-0.527,-0.5292,-0.5314,-0.5324,-0.5344,-0.5364,-0.5388,-0.5401,-0.5431,-0.5437,-0.5446,-0.5449,-0.5446,-0.5444,-0.5456,-0.5455,-0.5456,-0.5455,-0.5455,-0.5455,0,-0.5134,-0.5151,-0.5185,-0.5213,-0.5221,-0.5241,-0.5265,-0.5284,-0.5298,-0.5326,-0.5333,-0.5356,-0.5384,-0.5402,-0.5438,-0.5446,-0.5479,-0.5482,-0.5471,-0.5472,-0.5486,-0.5485,-0.5529,-0.5535,-0.5506,-0.5506,-0.5506,0,-0.5152,-0.5172,-0.5202,-0.5217,-0.5231,-0.5256,-0.5273,-0.5289,-0.5306,-0.5335,-0.535,-0.5378,-0.5402,-0.5445,-0.5466,-0.5493,-0.5496,-0.551,-0.55,-0.5496,-0.5497,-0.5496,-0.5498,-0.5511,-0.5512,-0.5512,-0.5512,0,-0.5183,-0.519,-0.5213,-0.5239,-0.5259,-0.5281,-0.5302,-0.5314,-0.5334,-0.5353,-0.5381,-0.5399,-0.5434,-0.5462,-0.5491,-0.5506,-0.5513,-0.5514,-0.5519,-0.5516,-0.5509,-0.5513,-0.5475,-0.5514,-0.5514,-0.5513,-0.5513,-0.5513,-0.5202,-0.522,-0.5243,-0.5269,-0.5287,-0.5307,-0.5325,-0.5341,-0.5365,-0.5395,-0.5403,-0.5432,-0.5456,-0.5495,-0.5511,-0.5534,-0.5532,-0.554,-0.5542,-0.5543,-0.5543,-0.5504,-0.5539,-0.5539,-0.5539,-0.5539,-0.5539,0,-0.5233,-0.5249,-0.5272,-0.5302,-0.5322,-0.5325,-0.5349,-0.5365,-0.5391,-0.5412,-0.5435,-0.5467,-0.5493,-0.5515,-0.5542,-0.5557,-0.556,-0.5563,-0.5563,-0.5566,-0.5543,-0.5536,-0.556,-0.556,-0.556,-0.556,-0.556,-0.556,-0.5252,-0.5282,-0.5292,-0.533,-0.5345,-0.5374,-0.5387,-0.5405,-0.5422,-0.5457,-0.5479,-0.5493,-0.5514,-0.5543,-0.5568,-0.5573,-0.5583,-0.5586,-0.5592,-0.557,-0.5568,-0.5566,-0.5559,-0.5588,-0.5588,-0.5613,-0.5614,-0.5614]},{"header":{"parameterUnit":"m.s-1","parameterCategory":1,"la1":30.2991,"la2":30.254,"lo1":-89.0895,"lo2":-89.0444,"dy":0.0017,"dx":0.0017,"nx":28,"ny":28,"refTime":"2024-03-22T03:00:00:Z","depth":0,"parameterNumber":3,"parameterNumberName":"V-component_of_WINDS"},"data":[0,0,0,0,0,0,0,0,0,0,0,0,0,0,0,0,0,0,0,0,0,0,0,0,0,0,0,0,0,0,0,0,0,0,0,0,0,0,0,0,0,0,0,0,0,0,0,0,0,0,0,0,0,0,0,0,0,0,-5.0435,-5.0437,0,-5.0557,-5.0558,-5.0559,-5.053,-5.0527,-5.0525,-5.0523,-5.065,-5.0655,-5.066,0,0,0,0,0,0,0,0,0,0,0,0,0,-5.0181,-5.0186,-5.0435,-5.0437,-5.0438,-5.0556,-5.0558,-5.056,-5.053,-5.0527,-5.0524,-5.0522,-5.0648,-5.0654,-5.0661,0,0,0,0,0,0,0,0,0,0,0,0,0,-5.0296,-5.0188,-5.0435,-5.0438,-5.0439,-5.0556,-5.0558,-5.056,-5.0531,-5.0527,-5.0524,-5.052,-5.0645,-5.0654,-5.0662,-5.0784,0,0,-5.0687,-5.0691,0,0,0,0,0,0,0,0,-5.0289,-5.0305,-5.0436,-5.0438,-5.0439,-5.0524,-5.0515,-5.0635,-5.0532,-5.0496,-5.0523,-5.0519,-5.0611,-5.0622,-5.0652,-5.079,-5.0796,-5.0688,-5.0693,-5.0697,-5.0699,0,0,0,0,0,0,0,-5.0282,-5.03,-5.0483,-5.0438,-5.044,-5.0434,-5.0446,-5.0538,-5.0572,-5.0499,-5.0497,-5.0512,-5.0611,-5.0644,-5.0655,-5.0798,-5.0688,-5.0695,-5.0701,-5.0704,-5.1044,-5.1048,0,0,0,0,0,0,-5.0272,-5.0293,-5.0479,-5.0487,-5.0354,-5.0441,-5.0455,-5.0501,-5.0571,-5.0578,-5.0514,-5.051,-5.0632,-5.0646,-5.066,-5.0809,-5.0697,-5.0705,-5.0709,-5.104,-5.1045,-5.1049,0,0,0,0,0,0,-5.0266,-5.0288,-5.0474,-5.039,-5.0413,-5.0449,-5.0501,-5.0505,-5.0538,-5.0583,-5.0589,-5.0542,-5.063,-5.0648,-5.0754,-5.0813,-5.0708,-5.0716,-5.1035,-5.1042,-5.1047,-5.1108,0,0,0,0,0,0,-5.0259,-5.0287,-5.0333,-5.0391,-5.0418,-5.0566,-5.0504,-5.051,-5.0552,-5.0547,-5.061,-5.0617,-5.0628,-5.0741,-5.0762,-5.0822,-5.0723,-5.103,-5.1038,-5.1045,-5.1101,-5.1115,-5.1127,0,0,0,0,0,-5.025,-5.0345,-5.0335,-5.0358,-5.0476,-5.0569,-5.0585,-5.0595,-5.0557,-5.0604,-5.0633,-5.0615,-5.0803,-5.0753,-5.0776,-5.0839,-5.1027,-5.1036,-5.1045,-5.1095,-5.1112,-5.1127,0,0,0,0,0,0,-5.0294,-5.0353,-5.0342,-5.0459,-5.0509,-5.0564,-5.0624,-5.0613,-5.0676,-5.0668,-5.0679,-5.0694,-5.0802,-5.0831,-5.0774,-5.0962,-5.0909,-5.0923,-5.094,-5.0957,-5.097,-5.0961,-5.0729,0,0,0,0,0,-5.0316,-5.0387,-5.0435,-5.0533,-5.0559,-5.0587,-5.0628,-5.0632,-5.0685,-5.0706,-5.0742,-5.0795,-5.0866,-5.0913,-5.0981,-5.1104,-5.1119,-5.116,-5.1173,-5.1184,-5.1196,-5.1266,-5.1285,-5.1079,-5.1079,-5.1079,0,0,-5.0365,-5.0406,-5.045,-5.0543,-5.0582,-5.0656,-5.0605,-5.0685,-5.074,-5.0718,-5.0821,-5.085,-5.0909,-5.1025,-5.1078,-5.1053,-5.1256,-5.1195,-5.1204,-5.121,-5.1277,-5.1296,-5.1314,-5.1085,-5.1084,-5.1083,0,0,-5.0491,-5.0529,-5.0615,-5.0656,-5.0716,-5.0734,-5.0755,-5.0812,-5.083,-5.0933,-5.0919,-5.0985,-5.1107,-5.1151,-5.1189,-5.1333,-5.1319,-5.1355,-5.1425,-5.1492,-5.1509,-5.1523,-5.1576,-5.1595,-5.1367,-5.1367,-5.1367,0,-5.0544,-5.0653,-5.0661,-5.0743,-5.0785,-5.0768,-5.0857,-5.0896,-5.0976,-5.1006,-5.0976,-5.113,-5.1168,-5.1295,-5.133,-5.1361,-5.1387,-5.1348,-5.1505,-5.152,-5.1534,-5.1584,-5.1604,-5.1371,-5.137,-5.137,-5.1369,0,-5.0716,-5.0792,-5.0855,-5.0932,-5.0981,-5.1066,-5.1088,-5.1137,-5.1137,-5.1159,-5.1265,-5.1311,-5.1388,-5.1419,-5.1419,-5.1546,-5.1529,-5.1502,-5.1449,-5.1557,-5.1605,-5.1624,-5.1376,-5.1375,-5.1374,-5.1373,0,0,-5.0872,-5.0953,-5.0976,-5.1012,-5.1077,-5.1137,-5.1222,-5.1297,-5.134,-5.1395,-5.1468,-5.1571,-5.1548,-5.1591,-5.1597,-5.1656,-5.1769,-5.1622,-5.1624,-5.1649,-5.1914,-5.1934,-5.1956,-5.176,-5.1764,-5.1766,-5.1909,0,-5.1005,-5.1153,-5.1164,-5.1298,-5.1369,-5.1355,-5.1429,-5.1478,-5.1502,-5.1566,-5.1592,-5.1666,-5.1629,-5.1655,-5.1713,-5.1743,-5.1822,-5.1733,-5.1829,-5.1832,-5.1815,-5.1981,-5.2002,-5.2134,-5.1928,-5.1931,-5.1933,0,-5.118,-5.1241,-5.1382,-5.1439,-5.1469,-5.1535,-5.1606,-5.1668,-5.1724,-5.1737,-5.1786,-5.1783,-5.1872,-5.1815,-5.1938,-5.1877,-5.1917,-5.1938,-5.1943,-5.1954,-5.189,-5.1996,-5.2176,-5.2197,-5.1962,-5.196,-5.1958,0,-5.1281,-5.1399,-5.1499,-5.1529,-5.1598,-5.1645,-5.1676,-5.1728,-5.1773,-5.1836,-5.1865,-5.1937,-5.1977,-5.2033,-5.2051,-5.2008,-5.2174,-5.2118,-5.2188,-5.2188,-5.2225,-5.2222,-5.2415,-5.2249,-5.2248,-5.2248,-5.2248,0,-5.1429,-5.1516,-5.1545,-5.1607,-5.1705,-5.1717,-5.1814,-5.1842,-5.1889,-5.1957,-5.195,-5.2014,-5.2033,-5.2101,-5.2116,-5.2216,-5.2234,-5.2248,-5.2251,-5.2249,-5.2248,-5.2276,-5.2268,-5.2253,-5.2252,-5.2251,-5.225,0,-5.1559,-5.1582,-5.169,-5.1746,-5.1763,-5.1833,-5.1881,-5.1942,-5.1964,-5.205,-5.2071,-5.2106,-5.2186,-5.2209,-5.2305,-5.2315,-5.2434,-5.2428,-5.2415,-5.2415,-5.2485,-5.2478,-5.2703,-5.2734,-5.2546,-5.2548,-5.255,0,-5.1652,-5.1719,-5.1783,-5.1827,-5.186,-5.1932,-5.1978,-5.1993,-5.2041,-5.2111,-5.2164,-5.2242,-5.2306,-5.2435,-5.247,-5.2544,-5.254,-5.2614,-5.2551,-5.2548,-5.2543,-5.2539,-5.2547,-5.2626,-5.2628,-5.263,-5.2631,0,-5.1816,-5.1824,-5.189,-5.1961,-5.2016,-5.2073,-5.2127,-5.2164,-5.2187,-5.2242,-5.2324,-5.2373,-5.2471,-5.255,-5.2626,-5.2659,-5.265,-5.265,-5.2671,-5.267,-5.266,-5.2668,-5.2448,-5.2645,-5.2644,-5.2643,-5.2642,-5.2641,-5.1931,-5.199,-5.2045,-5.2119,-5.2162,-5.2213,-5.2273,-5.2303,-5.237,-5.2451,-5.2456,-5.2545,-5.2601,-5.2701,-5.2738,-5.2809,-5.2787,-5.2816,-5.2824,-5.2831,-5.2838,-5.2648,-5.2822,-5.2822,-5.2821,-5.2821,-5.2821,0,-5.2095,-5.213,-5.2198,-5.2274,-5.2334,-5.2319,-5.2379,-5.2429,-5.2507,-5.256,-5.2623,-5.2718,-5.2794,-5.2836,-5.2913,-5.2961,-5.2959,-5.2981,-5.2978,-5.2987,-5.2852,-5.2827,-5.2982,-5.2982,-5.2982,-5.2982,-5.2982,-5.2982,-5.2188,-5.2288,-5.2303,-5.2425,-5.2459,-5.2545,-5.2581,-5.2629,-5.2671,-5.2777,-5.284,-5.2866,-5.2915,-5.2996,-5.3066,-5.3077,-5.3106,-5.3131,-5.3139,-5.3012,-5.2996,-5.298,-5.2957,-5.3137,-5.3137,-5.3268,-5.3269,-5.327]}]]